KUZGTU 1 (RS47S)

Last updated on Wed Jul 02 2025 00:03:06 GMT+0000 (Coordinated Universal Time)

1 57217U 23091AV 25182.59760661 .00006242 00000+0 28877-3 0 9993 2 57217 97.5569 239.9446 0012142 243.9381 116.0604 15.20445073110946
UTC large
Height (km)
Speed (km/s)
/
Latitude / Longitude
Inclination (degrees)
Orbital Period (minutes)
Azimuth
Elevation
Range (km)
Doppler Factor

Next 0 passes for location: London (51.5072 / 0.1276)

Sorry there are no passes over London.